Wind_Speed
22 21 21 22 22 23 24 23 23 23 23 23 22 23 21 20 20 21 20 20 19 19 19 18 17 16 16 17 17 17 17 17 17 17 18 18 19 19 18 18 18 18 18 19
23 21 22 22 21 23 23 24 25 26 25 23 22 23 23 22 21 20 19 19 19 18 18 18 18 17 16 16 17 18 18 18 18 18 19 19 19 19 18 18 18 18 18 18
25 24 26 26 24 24 26 26 25 26 23 22 23 24 24 23 21 21 20 20 20 19 19 18 18 18 18 17 17 18 18 18 18 19 19 20 20 19 19 19 19 19 19 19
25 26 27 23 23 25 25 26 26 25 24 24 23 24 23 22 21 21 21 20 18 19 19 19 19 19 18 19 19 19 18 18 18 19 19 19 19 19 19 20 21 20 20 19
27 26 24 22 22 23 26 26 26 24 23 22 23 23 23 23 22 22 20 20 21 20 20 20 20 19 19 19 19 20 20 19 19 19 19 19 19 20 20 20 20 20 19 19
27 26 25 24 23 24 26 27 25 24 24 23 24 24 22 23 22 22 21 22 22 21 21 20 20 19 19 19 20 20 21 21 21 20 20 20 20 20 20 20 20 20 20 20
26 26 27 26 24 24 26 25 25 25 24 23 24 24 23 23 22 22 22 21 20 20 20 20 20 20 20 20 21 21 21 22 23 22 21 21 21 21 21 21 21 21 20 20
27 27 27 25 26 27 27 26 25 26 26 26 25 25 24 22 21 22 22 22 21 20 20 20 20 21 21 21 21 21 21 22 22 21 21 21 21 21 21 22 21 20 20 20
26 27 25 26 28 28 28 28 27 27 25 25 25 25 24 22 22 22 22 22 22 21 22 22 22 21 21 21 21 21 21 21 21 21 21 21 21 21 21 21 21 20 20 20
26 26 25 26 27 28 28 27 28 27 26 26 25 25 25 24 23 23 22 23 23 22 22 22 22 22 21 22 23 23 23 23 22 21 21 21 21 21 22 21 21 20 20 21
27 27 25 25 26 27 28 27 26 26 26 26 25 25 25 26 25 24 23 23 23 22 22 22 22 22 22 22 23 23 23 23 23 22 22 22 21 22 22 21 21 21 21 21
25 26 27 27 26 27 26 26 25 25 27 27 26 25 26 25 25 24 24 24 23 23 23 22 22 22 22 22 22 22 22 22 22 22 22 22 23 23 22 21 21 21 21 21
24 24 25 26 25 26 27 26 26 26 27 27 27 26 26 25 25 24 24 24 23 23 23 23 23 22 22 22 22 22 22 22 23 23 22 23 23 23 23 22 22 22 22 22
24 24 24 25 25 25 24 24 25 26 26 26 26 26 26 26 25 24 24 24 24 24 24 24 23 23 23 22 22 22 23 23 23 23 23 23 23 23 24 23 23 22 22 22
23 23 23 23 23 24 25 25 25 25 26 26 26 26 26 25 24 24 24 24 24 24 24 24 23 23 24 23 23 22 22 22 23 23 23 23 23 23 23 23 23 23 22 22
22 23 22 22 23 23 24 25 25 26 27 26 26 26 25 24 24 25 24 24 24 24 23 23 24 24 24 24 23 23 22 22 22 22 23 23 24 24 24 23 23 23 22 22
20 21 21 21 21 21 21 21 21 22 23 23 23 23 24 24 24 25 25 25 24 23 23 23 23 23 23 23 23 22 22 22 22 22 23 24 24 24 24 23 23 23 22 21
20 21 21 21 22 22 21 20 21 22 23 23 23 23 23 23 24 25 25 25 25 24 23 23 23 23 23 23 23 23 23 23 23 23 23 23 24 25 25 24 23 22 22 22
19 19 19 20 20 20 22 22 22 22 23 23 23 23 23 23 23 24 25 25 24 24 23 23 23 23 23 23 24 24 24 24 24 24 24 23 23 23 23 23 23 24 23 22
18 18 18 19 20 21 22 23 23 23 23 23 24 24 24 24 24 24 24 24 24 24 24 23 23 23 24 24 24 24 24 24 25 24 24 24 23 23 23 23 23 23 22 23
19 19 19 19 19 20 21 22 23 24 23 23 23 24 24 25 25 24 24 24 23 24 24 23 23 24 24 25 25 25 25 25 25 24 23 22 22 22 22 22 22 22 22 22
19 19 20 20 20 21 21 21 22 23 23 23 23 23 24 24 24 23 23 23 23 23 23 23 23 23 24 25 25 26 25 25 24 23 22 22 22 22 23 22 21 21 21 21
20 20 20 20 20 21 21 21 21 22 22 22 22 22 22 23 23 23 23 22 22 22 22 23 23 23 24 25 26 26 25 24 23 22 22 23 23 23 22 21 21 21 21 21
20 19 19 19 19 19 19 18 19 20 20 20 21 21 21 21 22 21 22 22 22 22 23 24 24 24 24 24 24 24 23 22 21 21 21 21 21 21 21 21 21 21 21 21
19 19 19 18 18 18 18 17 17 17 17 18 19 19 20 20 20 20 21 22 23 24 24 24 25 24 24 24 24 23 22 21 21 20 20 21 20 20 21 21 21 21 22 22
18 18 18 18 18 18 17 17 17 17 18 18 18 19 19 19 19 20 21 22 22 23 23 23 23 23 22 22 22 22 21 21 21 21 21 22 22 21 22 22 22 22 22 22
18 18 18 18 18 18 18 17 17 18 18 17 18 18 18 18 19 20 21 21 21 21 21 21 21 21 21 21 21 20 20 20 21 21 21 21 21 21 22 22 22 22 22 23
Wind_Direction
247 244 250 250 245 244 248 250 253 255 253 257 261 267 271 272 276 279 281 281 283 287 288 286 285 284 281 280 278 280 282 283 286 289 289 291 292 293 293 292 290 290 291 292
246 245 248 252 253 247 247 251 253 256 258 264 264 266 271 272 274 277 278 279 282 286 287 286 283 285 285 285 282 281 282 283 285 286 288 289 290 290 290 290 289 289 292 293
248 244 244 247 248 251 247 251 254 256 258 261 263 266 270 270 273 275 275 276 279 283 286 284 283 285 285 286 285 284 284 284 286 287 287 287 287 288 290 290 290 289 291 291
250 249 247 247 248 248 249 248 251 255 260 263 264 267 267 267 270 272 277 276 277 282 282 280 281 280 283 283 283 285 285 285 288 290 291 290 288 289 291 292 291 292 291 291
249 250 250 250 252 252 252 252 256 260 261 263 265 266 267 269 272 276 276 275 280 280 278 277 278 279 281 281 284 288 289 288 289 292 292 291 289 289 290 292 294 293 291 293
247 250 250 255 255 253 255 253 252 257 262 263 264 266 269 270 271 273 273 275 276 275 276 278 278 278 279 280 282 287 289 289 289 291 290 290 291 290 291 293 292 292 291 292
246 250 250 253 256 255 255 257 255 256 261 264 265 266 269 268 269 269 270 273 275 275 276 276 275 277 279 280 281 283 286 288 287 289 288 287 289 289 291 291 289 289 290 289
250 250 250 251 253 253 256 257 260 262 262 264 266 267 269 268 266 270 270 272 274 275 275 275 276 277 278 279 282 283 285 286 286 286 285 286 288 289 290 290 289 288 289 288
246 248 252 253 253 255 258 260 262 263 263 264 266 267 268 267 266 266 268 270 271 273 273 275 277 278 278 279 280 281 284 286 287 286 285 287 287 289 289 288 288 288 289 290
245 247 251 254 255 256 258 259 261 262 261 264 268 268 267 266 266 265 266 269 271 272 272 274 276 277 278 280 280 280 282 285 286 285 285 285 285 287 289 290 289 289 290 291
248 250 253 255 255 257 259 260 260 261 262 264 266 266 267 267 268 267 268 269 270 270 271 273 275 276 277 279 280 281 281 283 286 287 284 285 286 287 287 288 290 292 292 292
251 252 253 256 256 256 257 258 259 261 263 266 266 264 263 263 265 265 267 270 270 270 272 273 274 275 278 279 280 281 281 283 285 287 287 287 287 286 288 291 289 288 289 291
251 252 254 258 259 258 258 257 259 261 262 263 263 263 262 263 265 266 268 269 269 270 271 272 274 275 277 281 279 279 282 283 286 287 288 288 288 287 287 288 288 288 289 289
253 256 257 258 258 257 258 258 258 259 261 261 262 263 263 263 263 264 266 267 270 272 271 271 272 275 277 279 279 279 280 282 283 286 288 289 289 288 288 287 287 288 290 289
254 256 258 259 258 260 260 259 258 259 260 261 262 262 262 262 262 264 267 271 273 273 270 269 271 273 275 277 279 280 280 280 282 285 287 289 289 288 287 288 288 289 290 289
255 257 259 259 259 260 262 260 260 260 260 263 262 261 261 261 260 264 267 270 272 272 270 269 271 273 275 276 278 279 280 280 281 284 287 288 287 288 287 286 286 287 288 288
257 258 257 259 263 263 262 261 261 261 260 260 260 261 262 261 261 265 267 268 269 268 269 268 269 272 273 276 277 278 280 279 280 282 285 288 288 289 287 284 284 285 285 286
256 257 259 262 266 262 259 259 259 260 261 263 263 263 262 262 262 264 265 267 268 267 268 269 270 271 273 275 278 278 280 281 280 281 283 285 286 287 286 284 282 283 284 282
258 259 259 261 264 263 261 260 260 261 262 263 264 264 263 263 262 263 265 267 267 268 268 269 270 273 276 277 279 280 280 282 283 283 284 283 284 285 284 283 283 284 282 280
259 262 263 264 265 265 263 262 262 262 262 263 262 262 261 262 263 264 266 268 267 268 268 270 271 274 276 277 278 280 281 282 284 284 284 283 284 284 285 285 284 283 281 279
262 263 264 265 265 265 265 264 264 263 263 262 262 263 264 264 264 265 267 268 268 268 269 271 273 276 277 277 277 278 280 282 284 284 283 281 281 283 285 285 284 283 281 279
263 264 265 266 266 266 267 266 266 266 266 267 267 266 266 267 266 266 266 267 268 268 269 272 274 275 277 278 278 278 280 282 282 281 278 278 279 281 283 282 282 282 282 282
264 265 266 268 269 269 269 269 269 267 268 269 270 269 266 265 266 265 265 265 267 268 270 273 276 276 278 279 280 280 281 281 279 278 277 276 277 278 278 277 278 280 281 282
265 265 267 269 271 272 273 273 271 270 269 269 269 267 266 265 264 263 264 264 266 269 272 274 277 277 278 280 281 281 281 279 277 275 276 277 276 273 273 275 278 280 282 284
270 269 268 269 271 272 274 276 275 271 270 270 269 268 267 265 264 264 266 268 270 271 272 274 277 279 280 281 282 281 280 279 278 276 277 279 277 273 273 275 277 280 283 283
270 270 269 268 267 268 271 273 273 272 273 272 270 269 269 268 268 269 269 270 270 271 273 275 278 280 281 281 281 281 280 278 277 275 275 279 279 278 278 279 280 280 282 283
273 273 271 268 267 267 270 272 272 273 273 270 268 269 270 272 272 271 270 270 269 270 272 274 275 277 279 279 279 280 279 277 277 277 277 279 279 281 281 282 282 283 285 285
Height
5782 5785 5786 5786 5788 5789 5790 5790 5791 5790 5790 5790 5791 5792 5792 5793 5793 5793 5793 5792 5791 5790 5789 5788 5787 5786 5787 5786 5786 5785 5785 5784 5783 5782 5781 5780 5779 5777 5776 5775 5773 5772 5771 5770
5776 5778 5779 5780 5781 5782 5783 5784 5785 5784 5784 5784 5785 5786 5787 5788 5788 5788 5788 5787 5786 5785 5785 5784 5783 5782 5782 5782 5781 5781 5780 5779 5779 5778 5776 5775 5774 5773 5771 5770 5768 5767 5766 5764
5770 5772 5772 5774 5775 5776 5777 5778 5779 5778 5779 5779 5779 5781 5782 5782 5783 5783 5782 5782 5781 5781 5780 5779 5779 5778 5777 5777 5777 5776 5775 5774 5773 5772 5771 5770 5768 5767 5766 5765 5763 5762 5761 5759
5763 5765 5765 5768 5769 5770 5770 5772 5772 5772 5773 5774 5774 5775 5776 5776 5776 5777 5776 5776 5775 5775 5775 5775 5775 5774 5773 5772 5771 5771 5770 5769 5768 5767 5766 5764 5763 5762 5761 5760 5758 5757 5755 5754
5756 5757 5758 5760 5762 5764 5765 5765 5765 5766 5767 5767 5768 5769 5770 5771 5771 5771 5771 5770 5770 5770 5770 5770 5769 5769 5768 5767 5766 5766 5765 5764 5763 5762 5760 5759 5758 5757 5756 5754 5753 5751 5750 5748
5749 5750 5751 5755 5756 5758 5759 5758 5760 5760 5761 5762 5763 5764 5765 5764 5765 5765 5765 5765 5765 5765 5764 5764 5764 5763 5762 5761 5761 5761 5760 5758 5757 5756 5755 5754 5753 5751 5750 5749 5747 5746 5744 5743
5742 5743 5745 5748 5750 5751 5752 5753 5754 5754 5755 5756 5757 5758 5758 5758 5759 5759 5759 5759 5759 5759 5758 5758 5758 5758 5757 5756 5755 5755 5754 5752 5751 5750 5749 5748 5747 5746 5744 5743 5741 5740 5739 5737
5736 5737 5740 5741 5743 5744 5744 5746 5746 5748 5749 5750 5751 5752 5752 5751 5752 5753 5753 5754 5753 5753 5752 5752 5752 5752 5751 5750 5749 5748 5747 5746 5745 5744 5743 5742 5741 5740 5738 5737 5735 5734 5733 5731
5730 5732 5731 5733 5734 5735 5737 5738 5739 5741 5742 5743 5744 5745 5745 5745 5746 5746 5747 5747 5747 5747 5747 5746 5746 5745 5745 5744 5743 5743 5742 5740 5739 5738 5737 5736 5735 5733 5732 5730 5729 5728 5727 5725
5723 5724 5724 5725 5727 5729 5730 5732 5733 5734 5735 5736 5737 5738 5739 5739 5740 5740 5740 5741 5741 5741 5741 5740 5740 5739 5738 5738 5737 5736 5735 5734 5733 5732 5731 5730 5728 5727 5726 5724 5723 5722 5720 5719
5715 5717 5718 5719 5721 5722 5723 5724 5725 5726 5727 5728 5730 5731 5731 5732 5733 5733 5734 5734 5734 5734 5734 5734 5733 5733 5732 5731 5730 5729 5728 5727 5726 5725 5724 5723 5722 5720 5719 5718 5717 5715 5714 5712
5709 5710 5711 5712 5713 5715 5716 5717 5718 5719 5720 5721 5722 5723 5724 5725 5725 5726 5727 5727 5727 5727 5727 5727 5727 5726 5726 5725 5724 5723 5722 5720 5719 5718 5717 5716 5715 5714 5712 5711 5710 5709 5707 5706
5702 5703 5704 5706 5707 5708 5708 5710 5711 5712 5713 5714 5715 5716 5717 5718 5718 5719 5719 5720 5720 5720 5720 5720 5720 5720 5719 5719 5718 5716 5715 5714 5712 5711 5710 5708 5707 5706 5705 5705 5703 5702 5701 5700
5695 5697 5698 5699 5699 5700 5701 5702 5703 5704 5705 5706 5707 5708 5709 5710 5711 5711 5712 5712 5713 5713 5713 5713 5713 5713 5712 5712 5711 5710 5709 5707 5706 5705 5703 5702 5700 5699 5697 5696 5696 5695 5694 5693
5689 5690 5692 5692 5692 5693 5694 5695 5696 5697 5698 5699 5699 5700 5702 5703 5704 5704 5705 5705 5705 5705 5705 5705 5705 5705 5705 5705 5704 5703 5702 5701 5699 5698 5697 5695 5694 5692 5690 5689 5688 5688 5687 5687
5683 5684 5685 5686 5686 5687 5687 5688 5689 5690 5691 5692 5692 5693 5694 5696 5697 5697 5698 5698 5698 5698 5698 5698 5698 5698 5698 5698 5697 5696 5695 5694 5693 5691 5690 5689 5687 5685 5684 5682 5682 5681 5681 5680
5677 5678 5678 5679 5680 5680 5681 5681 5682 5683 5684 5685 5685 5686 5687 5688 5689 5690 5690 5691 5691 5691 5691 5691 5691 5691 5691 5691 5690 5689 5688 5687 5686 5685 5684 5682 5681 5679 5677 5676 5675 5674 5674 5673
5671 5671 5672 5673 5673 5674 5675 5675 5676 5677 5678 5678 5679 5680 5681 5682 5682 5683 5683 5683 5684 5684 5684 5684 5684 5684 5684 5684 5683 5682 5681 5680 5679 5677 5676 5675 5674 5673 5671 5670 5669 5668 5667 5666
5665 5666 5666 5667 5667 5667 5668 5669 5669 5670 5671 5672 5673 5673 5674 5675 5675 5675 5676 5676 5676 5677 5677 5677 5677 5677 5677 5676 5676 5675 5674 5673 5672 5670 5669 5668 5667 5666 5665 5663 5662 5661 5660 5659
5659 5660 5661 5661 5661 5661 5662 5662 5663 5663 5664 5665 5666 5666 5667 5668 5668 5668 5669 5669 5669 5669 5670 5670 5669 5669 5669 5669 5668 5667 5667 5666 5664 5663 5662 5661 5660 5658 5657 5656 5655 5654 5653 5652
5654 5654 5654 5655 5655 5655 5655 5656 5656 5657 5657 5658 5658 5659 5660 5660 5661 5661 5661 5662 5662 5662 5662 5662 5662 5662 5662 5661 5660 5659 5659 5658 5656 5656 5654 5653 5652 5651 5650 5649 5648 5647 5646 5645
5647 5648 5648 5648 5648 5649 5649 5649 5649 5650 5650 5650 5651 5652 5652 5653 5653 5653 5654 5654 5655 5655 5655 5655 5654 5654 5654 5653 5652 5652 5651 5650 5649 5648 5647 5646 5645 5644 5643 5642 5641 5640 5639 5638
5641 5641 5641 5642 5642 5642 5642 5642 5642 5643 5643 5643 5643 5644 5645 5645 5646 5646 5647 5647 5647 5648 5648 5648 5647 5647 5646 5645 5645 5644 5643 5642 5641 5640 5639 5638 5638 5637 5636 5635 5634 5633 5632 5631
5635 5635 5635 5635 5635 5636 5636 5635 5636 5636 5636 5636 5636 5637 5637 5638 5639 5639 5640 5640 5640 5641 5641 5640 5640 5639 5638 5638 5637 5636 5635 5634 5634 5633 5632 5631 5630 5630 5629 5628 5628 5626 5625 5624
5628 5628 5629 5629 5629 5629 5629 5629 5629 5630 5630 5630 5630 5630 5630 5631 5632 5632 5632 5633 5633 5633 5633 5633 5632 5632 5631 5630 5629 5629 5628 5627 5627 5626 5626 5625 5624 5623 5622 5621 5620 5619 5618 5617
5622 5622 5623 5623 5623 5623 5624 5624 5624 5624 5623 5623 5624 5624 5624 5624 5625 5625 5625 5626 5626 5625 5625 5625 5625 5624 5624 5623 5622 5622 5621 5620 5620 5620 5619 5619 5618 5617 5616 5614 5613 5612 5611 5610
5616 5616 5617 5617 5617 5617 5618 5618 5618 5618 5618 5618 5618 5618 5618 5618 5618 5618 5618 5618 5618 5618 5618 5618 5618 5617 5617 5616 5616 5615 5614 5614 5614 5613 5612 5612 5611 5610 5609 5608 5606 5605 5604 5602